Location: Unspecified
(0.0000°N, 0.0000°E)
Time: 16:22:10
(UTC+02:00)

SWIFT - Pass Details

Date: 24 April 2018
Orbit: 546 x 562 km, 20.6° (Epoch: 18 June)

Event Time Altitude Azimuth Distance (km) Brightness Sun altitude
Rises 20:12:39 0° 258° (WSW) 2,725 7.3 -3.5°
Reaches altitude 10° 20:15:00 10° 264° (W) 1,832 6.5 -4.1°
Maximum altitude 20:19:07 47° 338° (NNW) 738 3.3 -5.1°
Drops below altitude 10° 20:23:14 10° 53° (NE) 1,832 4.6 -6.1°
Sets 20:25:35 0° 59° (ENE) 2,726 5.4 -6.7°
